Wind_Speed
105 103 102 97 94 89 89 92 91 89 80 73 67 69 67 61 62 58 59 65 55 46 44 38 32 32 31 32 26 26 26 26 24 22 21 19 17 15 13 11 13 14 12 15 18 22 22
116 115 112 110 104 99 98 95 96 92 91 85 75 70 69 66 64 60 65 60 58 53 48 45 39 36 34 33 32 29 27 27 28 25 25 23 22 20 20 19 19 19 17 18 18 22 25
127 125 124 119 115 111 107 104 94 97 95 92 92 75 70 72 61 61 67 64 65 62 54 52 46 40 39 35 36 34 33 29 29 29 28 28 27 25 24 23 23 23 23 21 21 24 26
132 138 134 129 125 121 116 112 105 100 101 98 98 91 79 75 69 68 70 67 64 59 56 56 49 48 45 41 37 36 34 33 31 31 31 31 31 31 29 27 26 26 26 24 25 24 25
129 140 145 138 133 132 126 119 112 106 105 104 100 101 95 85 76 69 67 67 67 62 62 57 56 53 44 45 40 39 41 39 37 32 31 32 31 30 31 31 31 31 28 28 26 25 25
124 136 137 150 143 138 135 129 122 116 109 109 105 105 98 96 89 81 76 73 67 65 67 62 60 53 50 53 46 42 43 41 40 36 30 30 30 32 33 30 31 36 34 31 29 27 27
98 122 140 141 149 148 142 137 130 124 118 111 112 110 106 102 95 94 84 77 73 78 72 75 63 58 54 52 51 51 48 44 41 40 39 34 30 32 30 33 35 34 35 34 35 33 31
84 103 133 141 149 156 148 142 139 131 126 117 112 112 110 106 102 97 92 87 82 75 75 72 66 69 59 58 57 53 49 49 48 44 40 35 33 36 33 32 33 37 38 37 33 37 36
71 87 108 137 145 153 154 146 143 138 131 126 115 114 111 110 107 102 96 93 95 83 80 79 67 64 64 65 62 59 60 57 53 48 43 43 40 36 34 36 36 36 37 41 40 39 38
64 75 92 111 141 150 154 156 148 142 138 131 124 120 117 113 109 109 104 101 99 97 89 83 72 67 71 67 66 64 64 57 54 55 47 46 41 40 38 38 39 39 39 40 40 41 41
58 66 78 94 115 146 152 149 156 146 139 137 130 124 118 115 109 107 107 108 106 103 96 91 77 65 81 72 67 69 67 63 59 59 53 51 50 47 43 43 41 39 42 41 40 40 40
48 59 68 82 99 121 143 151 156 154 143 139 137 130 121 116 114 111 113 114 111 109 93 92 86 79 75 65 70 70 68 64 63 61 57 54 54 51 50 48 45 46 45 45 45 44 42
41 52 61 71 86 103 125 146 150 152 149 141 140 135 128 118 116 112 120 120 117 105 94 91 85 83 78 82 70 71 71 69 69 64 61 63 61 60 58 55 53 51 52 50 47 48 45
35 43 54 62 74 91 108 136 145 150 152 145 140 139 133 125 124 119 119 122 115 102 99 93 91 90 88 85 73 73 73 74 69 69 68 70 68 68 65 62 58 55 55 54 54 52 51
31 37 47 56 65 79 95 116 132 146 149 147 143 139 140 132 130 129 127 120 108 104 106 100 96 94 94 85 77 78 78 80 78 80 78 73 74 72 71 68 66 61 59 60 56 55 54
27 31 40 50 58 71 84 102 119 133 147 147 144 140 139 135 136 136 135 124 107 113 110 107 103 99 98 90 96 96 86 81 80 79 82 78 77 77 77 76 72 68 68 65 62 59 59
26 28 33 43 53 63 75 90 102 119 142 144 141 142 141 138 140 143 140 120 115 116 116 115 111 108 104 101 93 94 88 90 89 88 86 82 78 79 80 77 78 75 73 71 67 64 65
24 25 29 36 46 56 66 78 90 108 128 141 146 143 141 141 143 144 135 120 121 123 120 118 115 111 110 109 101 98 98 97 95 99 102 99 94 86 86 84 80 77 77 74 74 71 69
23 22 25 32 40 49 60 72 84 98 109 124 139 141 140 142 145 137 130 128 130 128 121 120 118 116 114 112 113 110 106 103 103 102 101 102 99 93 91 91 86 83 83 81 79 77 75
23 20 22 28 35 45 58 68 76 88 100 114 132 142 143 143 144 139 134 129 126 132 133 121 120 120 118 117 113 110 110 110 107 109 106 104 102 100 97 96 95 89 89 90 88 82 84
22 20 19 25 32 41 53 64 73 78 96 106 120 131 142 142 142 140 140 139 136 134 133 131 123 122 122 122 120 119 114 111 110 112 112 110 108 107 104 103 100 98 96 96 94 91 90
23 18 18 22 29 39 50 60 69 74 84 97 110 119 133 139 142 139 144 145 140 137 133 130 125 123 125 123 125 125 122 121 119 118 118 117 117 112 111 109 108 106 103 101 102 102 99
24 19 18 21 26 37 46 57 67 72 80 92 102 115 124 134 140 140 144 145 143 140 138 134 133 127 120 125 125 127 126 125 125 124 121 120 118 117 116 117 116 110 107 109 109 106 103
26 20 17 18 24 35 43 49 56 61 69 81 94 104 112 122 131 135 138 142 142 142 140 140 137 137 130 122 124 124 126 127 126 123 119 117 117 120 121 121 121 112 113 114 113 112 110
28 21 18 17 20 29 39 48 51 59 66 75 85 96 102 110 119 126 129 139 142 143 142 145 145 144 142 135 130 124 125 121 122 123 123 120 119 119 122 123 124 121 119 119 118 119 119
31 24 19 18 19 23 32 42 51 56 61 66 71 85 96 102 112 115 119 127 134 140 139 142 148 147 147 144 141 136 132 125 125 122 121 121 122 125 127 128 129 126 126 128 128 127 125
32 27 21 18 20 23 27 34 43 49 55 62 66 75 84 94 104 110 113 120 127 130 132 136 140 141 146 147 146 144 140 136 134 132 129 125 125 127 129 129 132 134 133 131 131 131 132
35 27 23 18 19 22 26 28 30 38 49 56 63 69 76 85 94 103 109 109 112 118 123 125 125 133 140 146 149 148 146 145 142 140 139 139 135 133 132 133 135 135 135 135 135 136 137
39 29 23 19 17 20 24 29 35 37 42 52 58 66 72 77 83 89 97 103 104 106 112 118 122 126 129 134 139 145 147 144 144 144 145 144 141 140 140 140 142 142 144 145 146 146 147
Wind_Direction
234 232 231 230 229 230 232 233 233 229 228 232 236 238 239 240 249 250 245 248 241 239 239 236 244 259 263 267 268 272 273 271 271 270 263 261 256 248 256 273 291 303 314 324 337 343 328
238 232 231 230 228 228 230 231 232 233 233 225 228 238 233 239 242 242 244 242 247 249 239 237 243 253 258 262 267 271 269 271 272 272 271 265 261 261 257 259 272 284 290 304 316 326 334
238 236 230 229 227 226 229 230 230 230 231 232 229 227 235 232 237 235 240 245 245 240 244 240 245 244 249 256 262 267 271 271 276 271 270 273 269 264 264 267 273 275 279 292 300 308 316
242 238 233 228 226 226 225 227 227 231 230 231 232 228 226 227 230 232 238 235 247 239 242 243 246 251 248 252 256 260 264 273 275 274 270 270 272 271 270 272 272 277 280 282 292 299 308
238 237 232 230 227 225 225 224 224 227 230 230 231 233 229 226 224 230 235 234 238 242 244 246 241 241 244 248 253 258 262 271 276 277 272 269 271 274 270 268 274 276 276 281 284 290 298
233 229 231 228 229 226 224 223 223 225 227 230 229 231 231 232 226 223 229 234 236 240 243 244 240 244 247 251 253 256 258 268 275 277 276 276 271 270 273 276 272 273 278 278 280 282 287
235 231 226 223 226 226 223 222 222 222 224 228 231 231 232 232 229 230 223 229 230 240 235 240 227 236 248 248 253 259 259 263 267 273 278 275 274 275 281 275 276 278 280 281 277 277 281
237 231 222 224 225 224 225 221 221 221 223 223 229 230 231 231 232 230 232 229 227 231 236 236 235 246 246 249 255 255 255 262 263 268 275 270 271 284 278 280 283 280 281 282 280 277 276
238 232 226 223 224 223 223 225 220 219 220 222 222 228 229 230 232 234 229 230 231 225 237 236 238 245 250 246 252 252 254 262 257 263 266 274 267 273 275 280 284 285 282 281 281 278 276
243 234 228 224 222 222 221 222 223 219 220 220 220 224 227 228 230 232 234 231 230 226 226 231 239 242 249 251 251 254 253 254 253 257 262 270 269 270 275 278 281 282 282 284 283 281 277
245 238 231 226 222 222 219 220 222 220 219 220 220 221 226 227 227 229 228 229 229 229 232 229 232 241 242 245 248 255 252 251 252 255 259 261 267 272 271 278 280 281 285 282 283 282 280
247 240 234 228 223 221 220 217 218 220 219 220 219 220 221 226 227 228 228 229 229 232 233 232 231 235 234 249 248 249 247 248 251 256 256 259 263 266 269 275 277 280 280 284 279 279 280
250 241 235 229 225 222 222 218 217 218 218 219 219 219 220 219 224 224 229 229 230 234 234 232 233 233 232 240 241 241 243 248 252 252 253 255 258 263 265 269 271 276 280 282 283 276 273
256 243 237 231 226 222 220 217 217 216 218 217 220 219 220 218 223 222 227 232 232 231 229 230 234 230 232 231 236 242 247 248 251 252 252 255 259 260 263 265 267 271 276 279 281 277 272
264 247 237 232 226 223 219 217 218 214 216 216 219 221 220 219 222 225 226 228 233 232 233 231 230 232 230 224 229 238 243 247 251 253 255 257 258 259 262 263 265 268 272 275 277 278 272
274 253 240 233 226 223 220 219 218 217 215 215 217 219 221 219 221 225 228 229 226 232 232 232 231 228 227 229 232 233 234 239 243 249 252 255 257 258 263 263 265 268 269 271 274 276 274
277 260 241 233 230 224 221 220 217 216 214 214 214 217 218 219 222 225 227 227 227 231 232 232 234 232 232 232 234 236 235 238 242 244 249 248 252 257 260 261 262 265 269 270 273 276 275
283 266 248 234 229 226 220 218 217 217 214 214 213 215 216 219 222 224 227 225 228 229 232 233 235 235 233 234 234 236 239 239 246 250 254 254 258 259 259 261 261 264 268 268 269 270 274
289 269 250 236 229 225 221 217 216 215 214 215 215 215 217 218 221 224 225 228 227 229 229 232 234 235 235 236 237 238 236 239 244 247 249 255 257 258 260 262 263 264 264 266 269 270 274
296 275 257 235 227 222 219 219 216 213 215 213 214 216 216 219 220 221 222 225 228 227 228 229 231 233 235 235 237 238 240 241 242 245 247 252 256 259 260 261 262 261 264 267 269 270 271
306 281 256 240 225 221 219 219 220 211 211 213 215 217 218 220 220 220 223 224 226 228 229 231 230 232 235 237 238 238 237 239 240 242 247 251 255 258 259 260 261 262 264 267 270 271 272
315 291 264 242 231 221 218 218 219 216 213 211 214 216 218 220 221 222 224 223 226 228 229 231 232 233 232 235 238 240 240 240 242 244 247 251 255 257 258 259 260 262 264 266 269 270 270
320 302 272 244 232 230 224 216 219 215 214 211 213 216 218 219 220 222 226 226 225 228 230 230 233 232 234 235 237 239 240 241 243 246 249 252 253 255 257 259 259 260 263 265 266 267 269
325 311 287 259 236 230 227 227 222 223 219 215 214 217 218 220 221 223 225 227 227 228 231 232 233 235 235 235 236 237 241 243 245 246 247 248 251 254 256 257 259 261 262 265 266 268 268
330 317 297 268 245 236 230 228 226 222 218 215 215 217 218 219 221 223 225 226 227 229 232 232 233 234 235 237 237 237 237 239 243 245 247 248 247 251 254 257 259 260 261 262 264 266 267
334 322 305 283 257 239 237 230 229 225 220 217 216 214 218 219 221 223 225 227 229 230 232 234 235 236 237 238 239 240 240 241 241 244 246 247 250 251 254 256 258 258 260 262 265 266 267
339 325 311 292 272 255 239 231 227 224 222 220 217 216 217 219 221 224 227 230 230 231 233 235 237 238 239 239 241 243 243 245 245 244 243 245 248 249 252 255 257 259 260 261 263 265 267
344 331 316 298 280 264 257 247 233 232 226 223 223 221 219 220 221 224 225 229 232 233 233 234 235 239 241 241 241 242 243 246 247 248 249 249 250 249 251 253 254 257 257 259 260 262 264
348 338 322 302 282 265 253 250 250 235 231 230 227 225 223 224 225 226 227 228 231 234 236 236 238 240 241 243 244 245 244 246 248 250 251 252 253 255 254 254 256 257 259 260 261 262 263
Height
10627 10634 10636 10642 10650 10661 10663 10670 10677 10685 10692 10702 10712 10719 10726 10732 10737 10743 10748 10753 10757 10760 10764 10768 10771 10775 10778 10781 10783 10783 10785 10786 10787 10789 10790 10792 10793 10793 10793 10793 10794 10794 10793 10792 10793 10791 10790
10590 10600 10605 10613 10625 10632 10635 10645 10660 10671 10678 10680 10691 10702 10709 10716 10724 10730 10735 10740 10747 10752 10755 10758 10763 10766 10770 10774 10776 10778 10779 10781 10782 10783 10785 10786 10787 10787 10788 10789 10789 10789 10790 10789 10789 10788 10787
10535 10552 10563 10577 10592 10602 10608 10622 10637 10645 10655 10664 10673 10680 10692 10701 10708 10715 10721 10728 10732 10739 10745 10749 10753 10757 10762 10766 10769 10771 10773 10774 10776 10777 10778 10780 10781 10782 10782 10783 10784 10784 10784 10784 10785 10785 10784
10496 10506 10524 10537 10555 10568 10578 10594 10613 10622 10631 10642 10652 10659 10668 10680 10691 10700 10707 10715 10721 10727 10734 10739 10744 10748 10751 10756 10760 10763 10765 10767 10769 10770 10772 10773 10774 10775 10776 10777 10778 10778 10779 10779 10780 10780 10779
10429 10451 10475 10500 10518 10534 10547 10563 10583 10595 10607 10618 10628 10639 10648 10658 10670 10680 10691 10701 10709 10716 10722 10728 10731 10736 10741 10745 10750 10755 10757 10760 10762 10764 10765 10766 10768 10768 10769 10771 10772 10772 10773 10774 10774 10775 10774
10379 10395 10421 10451 10472 10496 10516 10531 10550 10568 10581 10594 10605 10616 10628 10639 10648 10659 10672 10684 10694 10703 10710 10718 10722 10725 10730 10733 10740 10746 10749 10751 10753 10755 10757 10759 10761 10761 10761 10764 10766 10765 10767 10768 10768 10769 10769
10337 10354 10373 10403 10425 10451 10475 10501 10519 10536 10553 10570 10582 10595 10608 10620 10631 10642 10653 10666 10676 10686 10694 10698 10705 10714 10716 10722 10729 10735 10740 10742 10744 10746 10749 10751 10751 10752 10756 10756 10757 10759 10759 10761 10763 10761 10762
10305 10318 10339 10365 10379 10409 10436 10465 10489 10507 10527 10545 10562 10574 10586 10600 10613 10627 10640 10649 10653 10665 10673 10684 10694 10704 10706 10711 10718 10724 10728 10732 10735 10738 10741 10742 10741 10745 10747 10747 10749 10750 10751 10752 10754 10754 10754
10280 10290 10305 10328 10348 10373 10404 10434 10458 10477 10498 10519 10537 10551 10564 10577 10595 10609 10620 10625 10631 10641 10654 10670 10682 10690 10694 10701 10706 10712 10716 10721 10724 10728 10731 10733 10732 10735 10737 10738 10740 10742 10743 10742 10745 10745 10747
10256 10265 10278 10296 10317 10334 10368 10397 10428 10456 10471 10491 10508 10524 10540 10557 10576 10585 10601 10600 10607 10615 10631 10657 10670 10678 10683 10688 10696 10699 10704 10708 10712 10715 10721 10723 10724 10724 10727 10729 10732 10733 10733 10733 10735 10735 10737
10236 10244 10256 10269 10287 10306 10335 10368 10397 10428 10444 10466 10484 10501 10521 10543 10554 10567 10570 10574 10580 10595 10618 10638 10654 10669 10671 10675 10685 10686 10689 10694 10698 10702 10711 10712 10712 10714 10716 10718 10722 10723 10723 10725 10725 10726 10727
10220 10225 10235 10247 10262 10282 10308 10338 10363 10395 10418 10437 10457 10477 10498 10519 10538 10546 10545 10549 10558 10573 10622 10631 10641 10652 10658 10663 10668 10670 10675 10680 10683 10689 10697 10700 10700 10703 10705 10707 10710 10712 10712 10714 10716 10716 10718
10205 10208 10216 10228 10243 10260 10281 10310 10339 10366 10389 10411 10432 10455 10477 10498 10514 10512 10514 10521 10537 10575 10605 10619 10628 10633 10639 10647 10650 10656 10661 10667 10669 10674 10681 10682 10688 10691 10693 10694 10697 10700 10700 10702 10704 10706 10707
10191 10195 10200 10212 10226 10241 10261 10287 10314 10343 10364 10388 10410 10432 10453 10477 10477 10487 10489 10499 10532 10575 10585 10600 10607 10612 10619 10626 10634 10640 10646 10652 10656 10658 10663 10668 10673 10675 10679 10681 10683 10686 10688 10689 10691 10693 10695
10181 10184 10188 10197 10209 10224 10241 10261 10284 10315 10339 10366 10390 10411 10426 10450 10454 10463 10464 10484 10537 10559 10564 10576 10585 10593 10601 10603 10611 10622 10630 10636 10635 10640 10645 10650 10658 10658 10663 10667 10667 10673 10674 10672 10677 10681 10682
10171 10173 10178 10184 10194 10206 10224 10238 10260 10290 10319 10341 10369 10389 10407 10430 10433 10432 10438 10481 10521 10526 10540 10553 10561 10571 10581 10586 10590 10595 10603 10616 10618 10622 10622 10636 10641 10645 10644 10651 10654 10655 10654 10658 10661 10664 10668
10163 10164 10169 10174 10181 10192 10207 10220 10245 10270 10292 10324 10349 10361 10380 10397 10400 10399 10417 10483 10498 10498 10517 10524 10538 10551 10565 10571 10575 10582 10588 10595 10596 10600 10601 10615 10618 10628 10629 10635 10635 10639 10640 10642 10643 10648 10649
10156 10157 10159 10164 10171 10181 10196 10210 10229 10244 10273 10299 10320 10329 10353 10362 10367 10383 10417 10476 10474 10474 10487 10507 10518 10530 10543 10550 10560 10562 10570 10577 10581 10580 10584 10587 10601 10611 10612 10616 10619 10622 10623 10624 10623 10629 10632
10149 10150 10151 10155 10160 10169 10180 10194 10207 10225 10251 10276 10294 10309 10329 10336 10347 10385 10419 10427 10442 10449 10466 10483 10496 10506 10516 10530 10537 10540 10549 10557 10560 10560 10563 10570 10580 10589 10595 10599 10602 10604 10604 10603 10603 10610 10619
10143 10142 10143 10145 10151 10158 10166 10176 10189 10210 10228 10248 10268 10284 10301 10310 10332 10364 10384 10397 10409 10423 10436 10454 10471 10481 10490 10503 10514 10520 10526 10535 10540 10540 10543 10546 10557 10568 10574 10575 10580 10586 10584 10584 10584 10593 10594
10138 10137 10136 10138 10143 10147 10155 10165 10176 10193 10205 10227 10244 10260 10281 10294 10310 10341 10354 10372 10382 10398 10415 10431 10447 10461 10467 10477 10487 10493 10505 10511 10518 10519 10522 10527 10535 10542 10547 10552 10558 10563 10566 10565 10568 10569 10571
10133 10132 10131 10130 10134 10138 10144 10151 10161 10175 10190 10210 10225 10239 10259 10275 10295 10316 10323 10350 10361 10377 10396 10412 10427 10436 10443 10451 10461 10470 10479 10488 10492 10499 10503 10509 10515 10519 10520 10526 10533 10540 10547 10547 10547 10545 10546
10129 10127 10127 10125 10127 10128 10134 10144 10151 10163 10176 10188 10204 10221 10237 10253 10274 10290 10302 10324 10344 10355 10370 10387 10396 10406 10418 10428 10435 10441 10453 10463 10472 10477 10480 10486 10493 10495 10499 10497 10500 10519 10528 10522 10520 10521 10522
10125 10123 10121 10122 10123 10122 10126 10130 10142 10151 10166 10179 10191 10203 10221 10234 10250 10266 10281 10302 10318 10334 10350 10361 10372 10378 10393 10400 10406 10415 10427 10438 10447 10454 10458 10466 10468 10467 10475 10471 10470 10502 10499 10496 10495 10495 10498
10121 10117 10117 10117 10117 10119 10120 10123 10131 10141 10152 10163 10175 10189 10204 10218 10233 10247 10262 10276 10294 10309 10316 10333 10345 10353 10360 10372 10380 10389 10401 10409 10419 10430 10437 10442 10445 10444 10445 10452 10454 10467 10471 10469 10470 10473 10473
10116 10113 10110 10110 10112 10115 10117 10121 10123 10130 10140 10150 10164 10177 10190 10205 10217 10229 10240 10254 10272 10284 10295 10306 10319 10327 10339 10349 10356 10365 10377 10390 10399 10406 10413 10418 10422 10420 10419 10421 10426 10437 10440 10442 10444 10441 10443
10114 10108 10106 10104 10103 10106 10109 10114 10119 10122 10129 10140 10150 10163 10176 10190 10201 10213 10223 10232 10249 10262 10275 10287 10296 10303 10312 10327 10338 10347 10355 10364 10370 10380 10387 10388 10394 10394 10392 10392 10395 10403 10409 10415 10414 10416 10413
10112 10107 10102 10101 10099 10097 10098 10100 10106 10114 10121 10128 10139 10150 10162 10173 10184 10195 10208 10217 10225 10239 10252 10264 10272 10275 10287 10298 10312 10319 10326 10334 10343 10349 10355 10360 10365 10370 10368 10368 10369 10372 10374 10379 10381 10383 10384
10111 10105 10100 10097 10096 10095 10094 10094 10096 10106 10113 10121 10129 10138 10148 10158 10168 10178 10189 10200 10210 10218 10228 10240 10247 10254 10262 10271 10285 10296 10303 10309 10316 10322 10327 10333 10336 10339 10342 10340 10338 10340 10342 10346 10348 10348 10348